EA5DHO-3 Weather Reports


Display with metric or nautical units.
time (UTC)temp
F
wind
direction
speed
MPH
gust
MPH
rain 1hr
in
rain 24hr
in
rain mn
in
humidity
%
barometer
mb
20220521063101 67 265 2.0 4.0 0.00 0.00 0.00 70 1025.2
20220521062058 67 270 0.0 2.0 0.00 0.00 0.00 69 1025.1
20220521061055 67 0.0 2.0 0.00 0.00 0.00 70 1025.0
20220521060052 66 270 0.0 2.0 0.00 0.00 0.00 72 1024.9
20220521055050 66 270 0.0 2.0 0.00 0.00 0.00 73 1024.8
20220521054048 66 270 1.0 2.0 0.00 0.00 0.00 73 1024.7
20220521053046 65 270 1.0 2.0 0.00 0.00 0.00 75 1024.6
20220521052043 65 0.0 2.0 0.00 0.00 0.00 77 1024.6
20220521051041 64 270 0.0 2.0 0.00 0.00 0.00 77 1024.6
20220521050039 64 270 1.0 2.0 0.00 0.00 0.00 78 1024.6
20220521045037 64 270 1.0 2.0 0.00 0.00 0.00 78 1024.6
20220521044035 64 270 1.0 2.0 0.00 0.00 0.00 78 1024.6
20220521043032 65 262 3.0 6.0 0.00 0.00 0.00 78 1024.6
20220521042030 65 266 3.0 6.0 0.00 0.00 0.00 77 1024.5
20220521041027 65 258 3.0 6.0 0.00 0.00 0.00 77 1024.4
20220521040024 65 259 4.0 7.0 0.00 0.00 0.00 76 1024.5
20220521035022 65 267 3.0 6.0 0.00 0.00 0.00 77 1024.5
20220521034020 65 259 3.0 6.0 0.00 0.00 0.00 77 1024.5
20220521033017 65 262 3.0 7.0 0.00 0.00 0.00 77 1024.6
20220521032015 65 266 3.0 4.0 0.00 0.00 0.00 77 1024.6
20220521031114 65 266 3.0 6.0 0.00 0.00 0.00 77 1024.6
20220521030111 65 266 4.0 6.0 0.00 0.00 0.00 77 1024.7
20220521025108 65 269 4.0 6.0 0.00 0.00 0.00 77 1024.7
20220521024106 65 266 3.0 4.0 0.00 0.00 0.00 77 1024.8
20220521023103 65 250 4.0 6.0 0.00 0.00 0.00 78 1024.7
20220521022101 66 267 4.0 6.0 0.00 0.00 0.00 77 1024.8
20220521021059 66 265 3.0 6.0 0.00 0.00 0.00 77 1024.9
20220521020056 66 248 1.0 4.0 0.00 0.00 0.00 76 1024.9
20220521015054 66 247 1.0 4.0 0.00 0.00 0.00 76 1025.0
20220521014052 67 261 2.0 4.0 0.00 0.00 0.00 75 1025.0
20220521013049 67 241 2.0 4.0 0.00 0.00 0.00 75 1025.2
20220521012047 67 252 1.0 4.0 0.00 0.00 0.00 75 1025.2
20220521011044 67 272 1.0 2.0 0.00 0.00 0.00 74 1025.4
20220521010042 67 253 1.0 2.0 0.00 0.00 0.00 74 1025.5
20220521005040 67 255 1.0 4.0 0.00 0.00 0.00 73 1025.5
20220521004037 68 265 3.0 6.0 0.00 0.00 0.00 72 1025.5
20220521003035 69 262 3.0 4.0 0.00 0.00 0.00 70 1025.6
20220521002033 69 263 2.0 4.0 0.00 0.00 0.00 70 1025.7
20220521001030 69 68 1.0 2.0 0.00 0.00 0.00 70 1025.7
20220521000028 70 68 0.0 2.0 0.00 0.00 0.00 70 1025.8
20220520235026 70 0.0 2.0 0.00 0.00 0.00 69 1025.9
20220520234024 70 68 1.0 2.0 0.00 0.00 0.00 68 1026.0
20220520233022 71 67 2.0 4.0 0.00 0.00 0.00 66 1026.1
20220520232019 71 0.0 0.0 0.00 0.00 0.00 75 1026.1
20220520231018 72 0.0 0.0 0.00 0.00 0.00 75 1026.2
20220520230114 72 0.0 0.0 0.00 0.00 0.00 75 1026.1
20220520225112 71 0.0 2.0 0.00 0.00 0.00 76 1026.3
20220520224110 72 90 0.0 2.0 0.00 0.00 0.00 75 1026.3
20220520223108 72 0.0 2.0 0.00 0.00 0.00 76 1026.3
20220520222105 72 0.0 2.0 0.00 0.00 0.00 75 1026.3
20220520221103 72 0.0 2.0 0.00 0.00 0.00 75 1026.3
20220520220101 73 90 0.0 2.0 0.00 0.00 0.00 74 1026.3
20220520215059 73 90 0.0 2.0 0.00 0.00 0.00 73 1026.4
20220520214056 73 90 1.0 2.0 0.00 0.00 0.00 70 1026.4
20220520213053 74 90 1.0 2.0 0.00 0.00 0.00 66 1026.4
20220520212051 74 90 0.0 2.0 0.00 0.00 0.00 64 1026.4
20220520211049 74 90 1.0 2.0 0.00 0.00 0.00 61 1026.3
20220520210047 74 90 0.0 2.0 0.00 0.00 0.00 60 1026.4
20220520205044 74 90 0.0 2.0 0.00 0.00 0.00 62 1026.2
20220520204042 74 90 0.0 2.0 0.00 0.00 0.00 61 1026.2
20220520203041 74 90 0.0 2.0 0.00 0.00 0.00 60 1026.1
20220520202037 75 90 1.0 2.0 0.00 0.00 0.00 59 1026.0
20220520201035 75 90 1.0 2.0 0.00 0.00 0.00 62 1026.1
20220520200034 75 98 2.0 4.0 0.00 0.00 0.00 60 1026.0
20220520195100 75 104 3.0 4.0 0.00 0.00 0.00 58 1025.9
20220520194057 75 94 3.0 4.0 0.00 0.00 0.00 56 1025.9
20220520193055 75 92 4.0 7.0 0.00 0.00 0.00 54 1025.8
20220520192053 76 92 5.0 8.0 0.00 0.00 0.00 54 1025.8
20220520191051 76 100 4.0 7.0 0.00 0.00 0.00 52 1025.8
20220520185047 76 89 5.0 8.0 0.00 0.00 0.00 51 1025.8
20220520184043 76 64 5.0 9.0 0.00 0.00 0.00 49 1025.7
20220520183043 77 68 3.0 6.0 0.00 0.00 0.00 50 1025.7
20220520182039 77 106 5.0 8.0 0.00 0.00 0.00 49 1025.8
20220520181037 77 86 6.0 9.0 0.00 0.00 0.00 49 1025.7
20220520180035 77 96 6.0 9.0 0.00 0.00 0.00 50 1025.7
20220520175032 78 96 5.0 9.0 0.00 0.00 0.00 50 1025.8
20220520174030 78 125 6.0 11.0 0.00 0.00 0.00 49 1025.8
20220520173028 79 70 5.0 11.0 0.00 0.00 0.00 49 1025.8
20220520172027 78 89 4.0 9.0 0.00 0.00 0.00 50 1025.8
20220520171024 79 77 6.0 11.0 0.00 0.00 0.00 51 1025.8
20220520170021 78 80 6.0 11.0 0.00 0.00 0.00 52 1025.9
20220520165018 78 87 5.0 13.0 0.00 0.00 0.00 54 1025.9
20220520164016 77 98 8.0 11.0 0.00 0.00 0.00 55 1026.0
20220520163115 77 96 8.0 13.0 0.00 0.00 0.00 57 1026.0
20220520162111 78 96 8.0 11.0 0.00 0.00 0.00 56 1026.2
20220520161109 77 72 9.0 14.0 0.00 0.00 0.00 54 1026.2
20220520160108 78 56 7.0 14.0 0.00 0.00 0.00 52 1026.1
20220520155104 78 75 8.0 13.0 0.00 0.00 0.00 50 1026.2
20220520154102 78 82 10.0 15.0 0.00 0.00 0.00 49 1026.1
20220520153100 79 77 8.0 15.0 0.00 0.00 0.00 47 1026.2
20220520152057 80 73 6.0 14.0 0.00 0.00 0.00 46 1026.3
20220520151055 79 71 6.0 11.0 0.00 0.00 0.00 48 1026.3
20220520150053 79 71 7.0 14.0 0.00 0.00 0.00 50 1026.3
20220520145051 79 21 6.0 11.0 0.00 0.00 0.00 51 1026.4
20220520144048 79 87 9.0 20.0 0.00 0.00 0.00 49 1026.4
20220520143046 79 79 10.0 15.0 0.00 0.00 0.00 48 1026.5
20220520142043 78 71 10.0 14.0 0.00 0.00 0.00 49 1026.5
20220520141042 80 66 7.0 14.0 0.00 0.00 0.00 46 1026.6
20220520140039 80 61 7.0 11.0 0.00 0.00 0.00 48 1026.7
20220520135038 80 73 5.0 11.0 0.00 0.00 0.00 48 1026.7
20220520134035 78 83 9.0 14.0 0.00 0.00 0.00 53 1026.8
20220520133032 78 82 9.0 14.0 0.00 0.00 0.00 52 1026.9
20220520132030 79 73 6.0 11.0 0.00 0.00 0.00 53 1027.0
20220520131027 78 86 7.0 13.0 0.00 0.00 0.00 53 1026.9
20220520130025 79 85 7.0 14.0 0.00 0.00 0.00 53 1026.9
20220520125022 79 80 7.0 13.0 0.00 0.00 0.00 53 1027.0
20220520124020 79 69 5.0 9.0 0.00 0.00 0.00 53 1027.1
20220520123018 79 110 8.0 15.0 0.00 0.00 0.00 51 1027.1
20220520122016 79 101 7.0 13.0 0.00 0.00 0.00 52 1027.1
20220520121113 78 78 8.0 14.0 0.00 0.00 0.00 52 1027.2
20220520120111 79 90 5.0 11.0 0.00 0.00 0.00 52 1027.1
20220520115108 78 83 6.0 11.0 0.00 0.00 0.00 53 1027.3
20220520114106 80 59 4.0 9.0 0.00 0.00 0.00 51 1027.3
20220520113104 78 61 6.0 11.0 0.00 0.00 0.00 55 1027.4
20220520112101 78 90 5.0 13.0 0.00 0.00 0.00 55 1027.5
20220520111059 78 87 7.0 15.0 0.00 0.00 0.00 55 1027.5
20220520110057 77 68 8.0 11.0 0.00 0.00 0.00 55 1027.5
20220520105054 77 81 8.0 15.0 0.00 0.00 0.00 55 1027.6
20220520104052 78 78 5.0 9.0 0.00 0.00 0.00 53 1027.7
20220520103051 79 83 4.0 11.0 0.00 0.00 0.00 53 1027.7
20220520102048 77 78 6.0 13.0 0.00 0.00 0.00 57 1027.6
20220520101045 78 115 5.0 9.0 0.00 0.00 0.00 54 1027.7
20220520100043 77 80 4.0 9.0 0.00 0.00 0.00 57 1027.8
20220520095041 76 81 4.0 9.0 0.00 0.00 0.00 58 1027.8
20220520094038 76 68 5.0 11.0 0.00 0.00 0.00 58 1027.8
20220520093037 78 71 3.0 11.0 0.00 0.00 0.00 56 1027.8
20220520092034 76 89 5.0 11.0 0.00 0.00 0.00 58 1027.9
20220520091031 76 87 5.0 11.0 0.00 0.00 0.00 59 1027.8
20220520090030 75 86 6.0 9.0 0.00 0.00 0.00 60 1027.8
20220520085027 76 80 4.0 7.0 0.00 0.00 0.00 60 1027.8
20220520084026 76 72 4.0 7.0 0.00 0.00 0.00 59 1027.7
20220520083023 75 94 5.0 9.0 0.00 0.00 0.00 60 1027.8
20220520082020 77 70 3.0 7.0 0.00 0.00 0.00 58 1027.7
20220520081017 75 59 2.0 6.0 0.00 0.00 0.00 60 1027.7
20220520080015 75 68 1.0 4.0 0.00 0.00 0.00 61 1027.6
20220520075113 75 49 1.0 4.0 0.00 0.00 0.00 62 1027.6
20220520074110 74 52 1.0 2.0 0.00 0.00 0.00 62 1027.5
20220520073108 73 28 1.0 4.0 0.00 0.00 0.00 62 1027.4
20220520072106 74 16 1.0 4.0 0.00 0.00 0.00 61 1027.5
20220520071103 72 270 0.0 2.0 0.00 0.00 0.00 64 1027.4
20220520070101 70 248 1.0 2.0 0.00 0.00 0.00 69 1027.4
20220520065059 69 248 1.0 2.0 0.00 0.00 0.00 71 1027.4
20220520064056 67 248 1.0 2.0 0.00 0.00 0.00 73 1027.3